Overview Statistics Trail Chart Weather Telemetry Raw packets
 

This is the latest recevied weather packets stored in our database for station/object VK4CWL-13. If no packets are shown the sender has not sent any weather packets the latest 10 day(s).

<< 86 87 88 89 90 91 92 >>
Time Temp. Humidity Pressure Rain* Wind** Luminosity Snow
1788040017 15° C 78% 1027.5 hPa 0 mm - - -
1788039715 14.44° C 79% 1027.5 hPa 0 mm - - -
1788039111 13.33° C 82% 1027.6 hPa 0 mm - - -
1788038809 12.78° C 83% 1027.6 hPa 0 mm - - -
1788038506 12.78° C 84% 1027.6 hPa 0 mm - - -
1788038204 12.22° C 84% 1027.6 hPa 0 mm - - -
1788037902 11.67° C 86% 1027.5 hPa 0 mm - - -
1788037600 11.67° C 85% 1027.5 hPa 0 mm - - -
1788037297 11.11° C 84% 1027.3 hPa 0 mm - - -
1788036995 11.11° C 85% 1027.4 hPa 0 mm - - -
1788036692 10.56° C 85% 1027.3 hPa 0 mm - - -
1788036390 10.56° C 85% 1027.2 hPa 0 mm - - -
1788036088 10.56° C 85% 1027.1 hPa 0 mm - - -
1788035786 10° C 84% 1026.9 hPa 0 mm - - -
1788035484 10° C 84% 1026.9 hPa 0 mm - - -
1788035181 10° C 83% 1026.8 hPa 0 mm - - -
1788034879 10° C 83% 1026.7 hPa 0 mm - - -
1788034577 10° C 83% 1026.6 hPa 0 mm - - -
1788034274 10° C 78% 1026.3 hPa 0 mm - - -
1788033972 10° C 77% 1026.3 hPa 0 mm - - -
1788033669 10.56° C 78% 1026.3 hPa 0 mm - - -
1788033367 10.56° C 79% 1026.4 hPa 0 mm - - -
1788033065 10.56° C 78% 1026.2 hPa 0 mm - - -
1788032763 10.56° C 77% 1026.2 hPa 0 mm - - -
1788032461 10.56° C 77% 1026 hPa 0 mm - - -

* Rain since midnight (hover to see other rain measurements)
** Current wind speed in m/s (hover to see current wind gust speed)